User: anonymous   Login
Location: Caltech
(34.1382°N, 118.1253°W)
Time: 19:46:31
(UTC-07:00)
Language:

CZ-2C R/B - Orbit

View from above orbital plane
View from above orbital plane
View from above satellite
View from above satellite

Ground track
Ground track

The orbit data is extracted from the following two-line orbital elements,

1 36089U 09061B   14297.20350064  .00000452  00000-0  12459-3 0  4669
2 36089 098.0943 325.0534 0083647 141.9275 264.0527 14.49246911261624
Epoch (UTC): 24 October 2014 04:53:02
Eccentricity: 0.0083647
inclination: 98.0943°
perigee height: 668 km
apogee height: 787 km
right ascension of ascending node: 325.0534°
argument of perigee: 141.9275°
revolutions per day: 14.49246911
mean anomaly at epoch: 264.0527°
orbit number at epoch: 26162

The dashed part of the orbit path shows where the satellite is in the earth's shadow,  

DLR